Location: Gleizolles
(44.4833°N, 6.7667°E)
Time: 00:12:34
(UTC+00:00)

Explorer 7 - All Passes

Search period start: 16 June 2024 00:00
Search period end: 26 June 2024 00:00
Orbit: 466 x 623 km, 50.3° (Epoch: 15 June)

Date Brightness Start Highest point End Pass type
(mag) Time Alt. Az. Time Alt. Az. Time Alt. Az.
16 Jun - 12:38:54 10° SW 12:42:41 57° SSE 12:46:21 10° ENE daylight
16 Jun - 14:18:51 10° W 14:22:27 41° NNW 14:25:57 10° ENE daylight
16 Jun - 15:59:15 10° WNW 16:02:38 33° N 16:05:59 10° ENE daylight
16 Jun - 17:38:59 10° WNW 17:42:38 77° NNE 17:46:18 10° ESE daylight
16 Jun - 19:19:12 10° W 19:21:57 20° SW 19:24:44 10° S daylight
17 Jun - 10:54:06 10° SSE 10:56:07 14° SE 10:58:06 10° ESE daylight
17 Jun - 12:31:25 10° SW 12:35:17 73° SSE 12:39:01 10° ENE daylight
17 Jun - 14:11:36 10° W 14:15:09 37° NNW 14:18:36 10° ENE daylight
17 Jun - 15:51:55 10° WNW 15:55:21 35° N 15:58:44 10° ENE daylight
17 Jun - 17:31:37 10° WNW 17:35:16 86° SSW 17:38:55 10° ESE daylight
17 Jun - 19:12:14 10° W 19:14:27 15° SW 19:16:41 10° S daylight
18 Jun - 10:45:51 10° S 10:48:35 18° SE 10:51:16 10° E daylight
18 Jun - 12:23:59 10° WSW 12:27:53 89° NW 12:31:38 10° ENE daylight
18 Jun - 14:04:19 10° WNW 14:07:49 35° N 14:11:14 10° ENE daylight
18 Jun - 15:44:33 10° WNW 15:48:02 38° NNE 15:51:28 10° E daylight
18 Jun - 17:24:13 10° WNW 17:27:51 67° SSW 17:31:29 10° SE daylight
18 Jun - 19:05:40 10° WSW 19:06:54 11° SW 19:08:09 10° SSW daylight
19 Jun - 10:37:51 10° SSW 10:41:04 23° SE 10:44:11 10° E daylight
19 Jun - 12:16:34 10° WSW 12:20:28 74° NNW 12:24:13 10° ENE daylight
19 Jun - 13:57:01 10° WNW 14:00:30 33° N 14:03:53 10° ENE daylight
19 Jun - 15:37:09 10° WNW 15:40:41 42° NNE 15:44:11 10° E daylight
19 Jun - 17:16:50 10° WNW 17:20:24 51° SW 17:23:57 10° SE daylight
20 Jun - 10:30:00 10° SSW 10:33:32 30° SE 10:36:57 10° ENE daylight
20 Jun - 12:09:10 10° WSW 12:13:03 61° NNW 12:16:47 10° ENE daylight
20 Jun - 13:49:41 10° WNW 13:53:08 32° N 13:56:31 10° ENE daylight
20 Jun - 15:29:41 10° WNW 15:33:19 48° NNE 15:36:51 10° E daylight
20 Jun - 17:09:28 10° WNW 17:12:54 39° SW 17:16:19 10° SSE daylight
21 Jun - 10:22:14 10° SSW 10:26:00 39° SE 10:29:37 10° ENE daylight
21 Jun - 12:01:47 10° W 12:05:37 52° NNW 12:09:18 10° ENE daylight
21 Jun - 13:42:18 10° WNW 13:45:46 32° N 13:49:08 10° ENE daylight
21 Jun - 15:22:13 10° WNW 15:25:53 57° NNE 15:29:28 10° ESE daylight
21 Jun - 17:02:07 10° WNW 17:05:21 30° SW 17:08:35 10° SSE daylight
22 Jun - 10:14:32 10° SW 10:18:27 51° SE 10:22:12 10° ENE daylight
22 Jun - 11:54:23 10° W 11:58:11 45° NNW 12:01:49 10° ENE daylight
22 Jun - 13:34:53 10° WNW 13:38:23 33° N 13:41:45 10° ENE daylight
22 Jun - 15:14:42 10° WNW 15:18:25 69° NNE 15:22:03 10° ESE daylight
22 Jun - 16:54:49 10° W 16:57:46 23° SW 17:00:42 10° SSE daylight
23 Jun - 08:29:58 10° SSE 08:31:47 13° SE 08:33:33 10° ESE daylight
23 Jun - 10:06:53 10° SW 10:10:54 65° SSE 10:14:45 10° ENE daylight
23 Jun - 11:46:59 10° W 11:50:44 41° NNW 11:54:20 10° ENE daylight
23 Jun - 13:27:25 10° WNW 13:30:57 35° N 13:34:22 10° ENE daylight
23 Jun - 15:07:11 10° WNW 15:10:55 85° NNE 15:14:34 10° ESE daylight
23 Jun - 16:47:37 10° W 16:50:08 18° SW 16:52:38 10° S daylight
24 Jun - 08:21:25 10° S 08:24:06 17° SE 08:26:42 10° E daylight
24 Jun - 09:59:16 10° WSW 10:03:21 82° SSE 10:07:15 10° ENE daylight
24 Jun - 11:39:33 10° W 11:43:16 37° N 11:46:50 10° ENE daylight
24 Jun - 13:19:55 10° WNW 13:23:30 37° N 13:26:58 10° E daylight
24 Jun - 14:59:38 10° WNW 15:03:23 77° SSW 15:07:01 10° SE daylight
24 Jun - 16:40:38 10° WSW 16:42:27 13° SW 16:44:17 10° SSW daylight
25 Jun - 08:13:12 10° S 08:16:25 22° SE 08:19:33 10° E daylight
25 Jun - 09:51:41 10° WSW 09:55:47 82° NNW 09:59:42 10° ENE daylight
25 Jun - 11:32:07 10° WNW 11:35:47 35° N 11:39:19 10° ENE daylight
25 Jun - 13:12:22 10° WNW 13:16:00 41° NNE 13:19:32 10° E daylight
25 Jun - 14:52:07 10° WNW 14:55:48 60° SSW 14:59:23 10° SE daylight
